Showing default

LEMUR-2 SONNENBLUME, 67367

Orbit data source: Space-Track

LEMUR-2 SONNENBLUME, 67367 is a payload satellite owned by Spire/Lux (US) in SSO that was launched on Sun, 11 Jan 2026 UTC via an FALCON 9 launch vehicle from the Air Force Western Test Range (AFWTR). Payload-class satellites include a variety of spacecraft equipped with specific instruments for various scientific and technological missions. These include communications satellites like Starlink; space stations such as the ISS; scientific satellites like the Hubble; Earth observation satellites from companies like Planet Labs, Umbra, and HawkEye 360; GPS; miniature CubeSats for education and research; and military/defense satellites.

Loading next visibility...
Identifier
67367, 2026-004E
Orbit
SSO
Country
Flag of USUS
Related business
Manufacturer
Spire/Glasgow
Mission
Operational Commercial Com/MetRO
Bus & Motor
CUBESAT 3U, Unknown motor
Mass
4.6 kg wet, 4.6 kg dry
Launch date (UTC)
2026-01-11 (4 months ago)
Launch vehicle
FALCON 9
Launch site
Air Force Western Test Range (AFWTR)
Object type
Payload
Rocket body
Debris
Shape & HBR
Box + 2 Pan, 0.2 m
Radar Cross Section
0.054 m²

Expand to show TLE details & history
Last TLE update: 12 hours ago

TLE from 12 hours ago
0 LEMUR-2 SONNENBLUME
1 67367U 26004E   26146.26521685  .00003133  00000-0  34563-3 0  9999
2 67367  97.7983 145.1532 0007157 204.4100 155.6779 14.88184224 20033
Epoch: 2026-05-26T06:21Z
TLE epoch observation values (Epoch: 2026-05-26T06:21:54.735Z)
Latitude
-0.00002°
Longitude
165.834°
Altitude
611.2 km
Speed
7.551 km/s
True Right ascension
09h 40m 36s
True Declination
0° 00' 00"
Sunlit
Object was in daylight at epoch
Visualization orbit readout
Latitude
Unknown
Longitude
Unknown
Altitude
Unknown
Speed
Unknown
Apparent Right ascension
Unknown
Apparent Declination
Unknown
Sunlit
N/A
Visualization observer readout
Local Sidereal Time
03:34:16
Azimuth
Unknown
Elevation
Unknown
Doppler factor
Unknown
Orbital elements
Apogee altitude
605.629 km
Perigee altitude
595.64 km
Semi-major axis
6,978.771 km
Eccentricity
0.00072
Inclination
97.7983°
RAAN
145.1532°
Arg. of periapsis
204.41°
True anomaly
155.71165°
Mean anomaly
155.6779°
Eccentric anomaly
155.69478°
Mean motion
3.72284 °/min
Orbital period
96.7 mins
BSTAR
0.00034563
Loading maneuver chart data...
Computing Atmospheric mass density...
Loading historical data...
Loading historical data...
Loading historical data...
Loading historical data...
Loading historical data...
Loading historical data...
Loading historical data...

Documentation

Showing up to 5 results
|